User: anonymous   Login
Location: *
(37.5724°S, 58.0067°E)
Time: 10:14:13
(UTC+00:00)
Language:

ALOS - Orbit

View from above orbital plane
View from above orbital plane
View from above satellite
View from above satellite

Ground track
Ground track

The orbit data is extracted from the following two-line orbital elements,

1 28931U 06002A   21209.93965690  .00000180  00000-0  43918-4 0  9990
2 28931  97.8896 182.8715 0000517  64.9090 295.2167 14.62861900827124
Epoch (UTC): 28 July 2021 22:33:06
Eccentricity: 0.0000517
inclination: 97.8896°
perigee height: 683 km
apogee height: 684 km
right ascension of ascending node: 182.8715°
argument of perigee: 64.9090°
revolutions per day: 14.62861900
mean anomaly at epoch: 295.2167°
orbit number at epoch: 82712

The dashed part of the orbit path shows where the satellite is in the earth's shadow,  

DLR